Year,Month,Day,Hour,Minute,Value (Times are PST for temperature in C)
2022,04,11,00,00,3.50
2022,04,11,00,01,3.40
2022,04,11,00,02,3.40
2022,04,11,00,03,3.40
2022,04,11,00,04,3.40
2022,04,11,00,05,3.40
2022,04,11,00,06,3.40
2022,04,11,00,07,3.40
2022,04,11,00,08,3.50
2022,04,11,00,09,3.50
2022,04,11,00,10,3.50
2022,04,11,00,11,3.50
2022,04,11,00,12,3.50
2022,04,11,00,13,3.50
2022,04,11,00,14,3.50
2022,04,11,00,15,3.60
2022,04,11,00,16,3.60
2022,04,11,00,17,3.60
2022,04,11,00,18,3.60
2022,04,11,00,19,3.50
2022,04,11,00,20,3.50
2022,04,11,00,21,3.40
2022,04,11,00,22,3.30
2022,04,11,00,23,3.30
2022,04,11,00,24,3.20
2022,04,11,00,25,3.20
2022,04,11,00,26,3.10
2022,04,11,00,27,3.10
2022,04,11,00,28,3.10
2022,04,11,00,29,3.10
2022,04,11,00,30,3.20
2022,04,11,00,31,3.20
2022,04,11,00,32,3.20
2022,04,11,00,33,3.20
2022,04,11,00,34,3.20
2022,04,11,00,35,3.30
2022,04,11,00,36,3.30
2022,04,11,00,37,3.30
2022,04,11,00,38,3.30
2022,04,11,00,39,3.30
2022,04,11,00,40,3.30
2022,04,11,00,41,3.30
2022,04,11,00,42,3.20
2022,04,11,00,43,3.20
2022,04,11,00,44,3.10
2022,04,11,00,45,3.10
2022,04,11,00,46,3.10
2022,04,11,00,47,3.10
2022,04,11,00,48,3.10
2022,04,11,00,49,3.10
2022,04,11,00,50,3.20
2022,04,11,00,51,3.20
2022,04,11,00,52,3.20
2022,04,11,00,53,3.20
2022,04,11,00,54,3.20
2022,04,11,00,55,3.20
2022,04,11,00,56,3.20
2022,04,11,00,57,3.10
2022,04,11,00,58,3.10
2022,04,11,00,59,3.10
2022,04,11,01,00,3.10
2022,04,11,01,01,3.10
2022,04,11,01,02,3.10
2022,04,11,01,03,3.20
2022,04,11,01,04,3.20
2022,04,11,01,05,3.20
2022,04,11,01,06,3.30
2022,04,11,01,07,3.20
2022,04,11,01,08,3.20
2022,04,11,01,09,3.20
2022,04,11,01,10,3.20
2022,04,11,01,11,3.20
2022,04,11,01,12,3.20
2022,04,11,01,13,3.30
2022,04,11,01,14,3.30
2022,04,11,01,15,3.30
2022,04,11,01,16,3.30
2022,04,11,01,17,3.40
2022,04,11,01,18,3.40
2022,04,11,01,19,3.30
2022,04,11,01,20,3.30
2022,04,11,01,21,3.30
2022,04,11,01,22,3.30
2022,04,11,01,23,3.30
2022,04,11,01,24,3.30
2022,04,11,01,25,3.30
2022,04,11,01,26,3.30
2022,04,11,01,27,3.40
2022,04,11,01,28,3.40
2022,04,11,01,29,3.40
2022,04,11,01,30,3.40
2022,04,11,01,31,3.40
2022,04,11,01,32,3.40
2022,04,11,01,33,3.40
2022,04,11,01,34,3.40
2022,04,11,01,35,3.40
2022,04,11,01,36,3.40
2022,04,11,01,37,3.40
2022,04,11,01,38,3.30
2022,04,11,01,39,3.30
2022,04,11,01,40,3.30
2022,04,11,01,41,3.30
2022,04,11,01,42,3.30
2022,04,11,01,43,3.20
2022,04,11,01,44,3.20
2022,04,11,01,45,3.20
2022,04,11,01,46,3.20
2022,04,11,01,47,3.20
2022,04,11,01,48,3.20
2022,04,11,01,49,3.20
2022,04,11,01,50,3.20
2022,04,11,01,51,3.20
2022,04,11,01,52,3.20
2022,04,11,01,53,3.20
2022,04,11,01,54,3.20
2022,04,11,01,55,3.30
2022,04,11,01,56,3.30
2022,04,11,01,57,3.20
2022,04,11,01,58,3.20
2022,04,11,01,59,3.20
2022,04,11,02,00,3.20
2022,04,11,02,01,3.20
2022,04,11,02,02,3.10
2022,04,11,02,03,3.10
2022,04,11,02,04,3.00
2022,04,11,02,05,3.00
2022,04,11,02,06,2.90
2022,04,11,02,07,2.90
2022,04,11,02,08,2.90
2022,04,11,02,09,2.90
2022,04,11,02,10,2.90
2022,04,11,02,11,2.90
2022,04,11,02,12,2.90
2022,04,11,02,13,2.90
2022,04,11,02,14,2.90
2022,04,11,02,15,3.00
2022,04,11,02,16,3.00
2022,04,11,02,17,3.00
2022,04,11,02,18,3.00
2022,04,11,02,19,3.00
2022,04,11,02,20,3.00
2022,04,11,02,21,3.10
2022,04,11,02,22,3.10
2022,04,11,02,23,3.10
2022,04,11,02,24,3.10
2022,04,11,02,25,3.10
2022,04,11,02,26,3.10
2022,04,11,02,27,3.10
2022,04,11,02,28,3.10
2022,04,11,02,29,3.10
2022,04,11,02,30,3.10
2022,04,11,02,31,3.10
2022,04,11,02,32,3.10
2022,04,11,02,33,3.10
2022,04,11,02,34,3.10
2022,04,11,02,35,3.10
2022,04,11,02,36,3.10
2022,04,11,02,37,3.10
2022,04,11,02,38,3.20
2022,04,11,02,39,3.20
2022,04,11,02,40,3.20
2022,04,11,02,41,3.20
2022,04,11,02,42,3.20
2022,04,11,02,43,3.20
2022,04,11,02,44,3.10
2022,04,11,02,45,3.20
2022,04,11,02,46,3.20
2022,04,11,02,47,3.20
2022,04,11,02,48,3.20
2022,04,11,02,49,3.20
2022,04,11,02,50,3.20
2022,04,11,02,51,3.20
2022,04,11,02,52,3.20
2022,04,11,02,53,3.30
2022,04,11,02,54,3.30
2022,04,11,02,55,3.30
2022,04,11,02,56,3.40
2022,04,11,02,57,3.50
2022,04,11,02,58,3.60
2022,04,11,02,59,3.60
2022,04,11,03,00,3.60
2022,04,11,03,01,3.60
2022,04,11,03,02,3.60
2022,04,11,03,03,3.70
2022,04,11,03,04,3.70
2022,04,11,03,05,3.80
2022,04,11,03,06,3.80
2022,04,11,03,07,3.90
2022,04,11,03,08,3.90
2022,04,11,03,09,4.00
2022,04,11,03,10,4.00
2022,04,11,03,11,4.10
2022,04,11,03,12,4.10
2022,04,11,03,13,4.10
2022,04,11,03,14,4.10
2022,04,11,03,15,4.10
2022,04,11,03,16,4.10
2022,04,11,03,17,4.20
2022,04,11,03,18,4.20
2022,04,11,03,19,4.20
2022,04,11,03,20,4.20
2022,04,11,03,21,4.20
2022,04,11,03,22,4.20
2022,04,11,03,23,4.20
2022,04,11,03,24,4.20
2022,04,11,03,25,4.20
2022,04,11,03,26,4.10
2022,04,11,03,27,4.10
2022,04,11,03,28,4.10
2022,04,11,03,29,4.00
2022,04,11,03,30,4.00
2022,04,11,03,31,4.00
2022,04,11,03,32,4.00
2022,04,11,03,33,4.00
2022,04,11,03,34,4.00
2022,04,11,03,35,4.00
2022,04,11,03,36,4.00
2022,04,11,03,37,4.10
2022,04,11,03,38,4.00
2022,04,11,03,39,4.10
2022,04,11,03,40,4.10
2022,04,11,03,41,4.10
2022,04,11,03,42,4.10
2022,04,11,03,43,4.10
2022,04,11,03,44,4.10
2022,04,11,03,45,4.10
2022,04,11,03,46,4.10
2022,04,11,03,47,4.10
2022,04,11,03,48,4.10
2022,04,11,03,49,4.10
2022,04,11,03,50,4.10
2022,04,11,03,51,4.10
2022,04,11,03,52,4.10
2022,04,11,03,53,4.10
2022,04,11,03,54,4.10
2022,04,11,03,55,4.20
2022,04,11,03,56,4.20
2022,04,11,03,57,4.20
2022,04,11,03,58,4.20
2022,04,11,03,59,4.20
2022,04,11,04,00,4.20
2022,04,11,04,01,4.20
2022,04,11,04,02,4.20
2022,04,11,04,03,4.30
2022,04,11,04,04,4.30
2022,04,11,04,05,4.30
2022,04,11,04,06,4.30
2022,04,11,04,07,4.30
2022,04,11,04,08,4.30
2022,04,11,04,09,4.30
2022,04,11,04,10,4.30
2022,04,11,04,11,4.30
2022,04,11,04,12,4.30
2022,04,11,04,13,4.40
2022,04,11,04,14,4.40
2022,04,11,04,15,4.40
2022,04,11,04,16,4.40
2022,04,11,04,17,4.40
2022,04,11,04,18,4.40
2022,04,11,04,19,4.50
2022,04,11,04,20,4.40
2022,04,11,04,21,4.40
2022,04,11,04,22,4.40
2022,04,11,04,23,4.40
2022,04,11,04,24,4.40
2022,04,11,04,25,4.40
2022,04,11,04,26,4.30
2022,04,11,04,27,4.30
2022,04,11,04,28,4.30
2022,04,11,04,29,4.30
2022,04,11,04,30,4.30
2022,04,11,04,31,4.30
2022,04,11,04,32,4.30
2022,04,11,04,33,4.30
2022,04,11,04,34,4.30
2022,04,11,04,35,4.30
2022,04,11,04,36,4.30
2022,04,11,04,37,4.30
2022,04,11,04,38,4.30
2022,04,11,04,39,4.30
2022,04,11,04,40,4.30
2022,04,11,04,41,4.30
2022,04,11,04,42,4.30
2022,04,11,04,43,4.30
2022,04,11,04,44,4.30
2022,04,11,04,45,4.30
2022,04,11,04,46,4.30
2022,04,11,04,47,4.30
2022,04,11,04,48,4.30
2022,04,11,04,49,4.40
2022,04,11,04,50,4.30
2022,04,11,04,51,4.30
2022,04,11,04,52,4.30
2022,04,11,04,53,4.30
2022,04,11,04,54,4.30
2022,04,11,04,55,4.30
2022,04,11,04,56,4.40
2022,04,11,04,57,4.40
2022,04,11,04,58,4.40
2022,04,11,04,59,4.40
2022,04,11,05,00,4.40
2022,04,11,05,01,4.40
2022,04,11,05,02,4.40
2022,04,11,05,03,4.40
2022,04,11,05,04,4.40
2022,04,11,05,05,4.40
2022,04,11,05,06,4.40
2022,04,11,05,07,4.40
2022,04,11,05,08,4.30
2022,04,11,05,09,4.30
2022,04,11,05,10,4.30
2022,04,11,05,11,4.30
2022,04,11,05,12,4.30
2022,04,11,05,13,4.30
2022,04,11,05,14,4.30
2022,04,11,05,15,4.30
2022,04,11,05,16,4.30
2022,04,11,05,17,4.30
2022,04,11,05,18,4.40
2022,04,11,05,19,4.40
2022,04,11,05,20,4.40
2022,04,11,05,21,4.40
2022,04,11,05,22,4.40
2022,04,11,05,23,4.40
2022,04,11,05,24,4.40
2022,04,11,05,25,4.40
2022,04,11,05,26,4.40
2022,04,11,05,27,4.40
2022,04,11,05,28,4.40
2022,04,11,05,29,4.50
2022,04,11,05,30,4.50
2022,04,11,05,31,4.50
2022,04,11,05,32,4.50
2022,04,11,05,33,4.50
2022,04,11,05,34,4.50
2022,04,11,05,35,4.50
2022,04,11,05,36,4.60
2022,04,11,05,37,4.60
2022,04,11,05,38,4.60
2022,04,11,05,39,4.60
2022,04,11,05,40,4.60
2022,04,11,05,41,4.60
2022,04,11,05,42,4.60
2022,04,11,05,43,4.60
2022,04,11,05,44,4.60
2022,04,11,05,45,4.60
2022,04,11,05,46,4.60
2022,04,11,05,47,4.70
2022,04,11,05,48,4.60
2022,04,11,05,49,4.70
2022,04,11,05,50,4.60
2022,04,11,05,51,4.60
2022,04,11,05,52,4.60
2022,04,11,05,53,4.60
2022,04,11,05,54,4.60
2022,04,11,05,55,4.60
2022,04,11,05,56,4.60
2022,04,11,05,57,4.60
2022,04,11,05,58,4.60
2022,04,11,05,59,4.60
2022,04,11,06,00,4.60
2022,04,11,06,01,4.60
2022,04,11,06,02,4.60
2022,04,11,06,03,4.60
2022,04,11,06,04,4.70
2022,04,11,06,05,4.60
2022,04,11,06,06,4.60
2022,04,11,06,07,4.70
2022,04,11,06,08,4.70
2022,04,11,06,09,4.70
2022,04,11,06,10,4.70
2022,04,11,06,11,4.70
2022,04,11,06,12,4.70
2022,04,11,06,13,4.70
2022,04,11,06,14,4.70
2022,04,11,06,15,4.70
2022,04,11,06,16,4.70
2022,04,11,06,17,4.70
2022,04,11,06,18,4.70
2022,04,11,06,19,4.70
2022,04,11,06,20,4.70
2022,04,11,06,21,4.80
2022,04,11,06,22,4.80
2022,04,11,06,23,4.80
2022,04,11,06,24,4.80
2022,04,11,06,25,4.80
2022,04,11,06,26,4.80
2022,04,11,06,27,4.80
2022,04,11,06,28,4.90
2022,04,11,06,29,4.80
2022,04,11,06,30,4.90
2022,04,11,06,31,4.80
2022,04,11,06,32,4.80
2022,04,11,06,33,4.80
2022,04,11,06,34,4.80
2022,04,11,06,35,4.80
2022,04,11,06,36,4.90
2022,04,11,06,37,4.90
2022,04,11,06,38,4.90
2022,04,11,06,39,4.90
2022,04,11,06,40,4.90
2022,04,11,06,41,4.90
2022,04,11,06,42,4.90
2022,04,11,06,43,5.00
2022,04,11,06,44,5.00
2022,04,11,06,45,4.90
2022,04,11,06,46,5.00
2022,04,11,06,47,5.00
2022,04,11,06,48,5.10
2022,04,11,06,49,5.10
2022,04,11,06,50,5.10
2022,04,11,06,51,5.10
2022,04,11,06,52,5.10
2022,04,11,06,53,5.10
2022,04,11,06,54,5.10
2022,04,11,06,55,5.10
2022,04,11,06,56,5.10
2022,04,11,06,57,5.20
2022,04,11,06,58,5.20
2022,04,11,06,59,5.20
2022,04,11,07,00,5.20
2022,04,11,07,01,5.20
2022,04,11,07,02,5.20
2022,04,11,07,03,5.20
2022,04,11,07,04,5.20
2022,04,11,07,05,5.20
2022,04,11,07,06,5.20
2022,04,11,07,07,5.20
2022,04,11,07,08,5.20
2022,04,11,07,09,5.20
2022,04,11,07,10,5.20
2022,04,11,07,11,5.20
2022,04,11,07,12,5.20
2022,04,11,07,13,5.20
2022,04,11,07,14,5.20
2022,04,11,07,15,5.20
2022,04,11,07,16,5.30
2022,04,11,07,17,5.30
2022,04,11,07,18,5.30
2022,04,11,07,19,5.30
2022,04,11,07,20,5.30
2022,04,11,07,21,5.30
2022,04,11,07,22,5.30
2022,04,11,07,23,5.30
2022,04,11,07,24,5.30
2022,04,11,07,25,5.30
2022,04,11,07,26,5.30
2022,04,11,07,27,5.30
2022,04,11,07,28,5.30
2022,04,11,07,29,5.40
2022,04,11,07,30,5.40
2022,04,11,07,31,5.40
2022,04,11,07,32,5.40
2022,04,11,07,33,5.40
2022,04,11,07,34,5.40
2022,04,11,07,35,5.40
2022,04,11,07,36,5.40
2022,04,11,07,37,5.40
2022,04,11,07,38,5.40
2022,04,11,07,39,5.40
2022,04,11,07,40,5.40
2022,04,11,07,41,5.30
2022,04,11,07,42,5.40
2022,04,11,07,43,5.40
2022,04,11,07,44,5.40
2022,04,11,07,45,5.40
2022,04,11,07,46,5.40
2022,04,11,07,47,5.40
2022,04,11,07,48,5.40
2022,04,11,07,49,5.50
2022,04,11,07,50,5.50
2022,04,11,07,51,5.60
2022,04,11,07,52,5.60
2022,04,11,07,53,5.60
2022,04,11,07,54,5.60
2022,04,11,07,55,5.60
2022,04,11,07,56,5.60
2022,04,11,07,57,5.60
2022,04,11,07,58,5.60
2022,04,11,07,59,5.60
2022,04,11,08,00,5.60
2022,04,11,08,01,5.70
2022,04,11,08,02,5.70
2022,04,11,08,03,5.70
2022,04,11,08,04,5.70
2022,04,11,08,05,5.70
2022,04,11,08,06,5.70
2022,04,11,08,07,5.70
2022,04,11,08,08,5.70
2022,04,11,08,09,5.80
2022,04,11,08,10,5.80
2022,04,11,08,11,5.80
2022,04,11,08,12,5.80
2022,04,11,08,13,5.80
2022,04,11,08,14,5.80
2022,04,11,08,15,5.80
2022,04,11,08,16,5.80
2022,04,11,08,17,5.80
2022,04,11,08,18,5.80
2022,04,11,08,19,5.80
2022,04,11,08,20,5.80
2022,04,11,08,21,5.80
2022,04,11,08,22,5.80
2022,04,11,08,23,5.80
2022,04,11,08,24,5.90
2022,04,11,08,25,5.90
2022,04,11,08,26,5.90
2022,04,11,08,27,5.90
2022,04,11,08,28,5.90
2022,04,11,08,29,5.90
2022,04,11,08,30,5.90
2022,04,11,08,31,6.00
2022,04,11,08,32,5.90
2022,04,11,08,33,5.90
2022,04,11,08,34,6.00
2022,04,11,08,35,6.00
2022,04,11,08,36,6.00
2022,04,11,08,37,6.00
2022,04,11,08,38,6.10
2022,04,11,08,39,6.10
2022,04,11,08,40,6.10
2022,04,11,08,41,6.10
2022,04,11,08,42,6.10
2022,04,11,08,43,6.20
2022,04,11,08,44,6.20
2022,04,11,08,45,6.20
2022,04,11,08,46,6.20
2022,04,11,08,47,6.30
2022,04,11,08,48,6.30
2022,04,11,08,49,6.30
2022,04,11,08,50,6.30
2022,04,11,08,51,6.30
2022,04,11,08,52,6.40
2022,04,11,08,53,6.40
2022,04,11,08,54,6.40
2022,04,11,08,55,6.40
2022,04,11,08,56,6.40
2022,04,11,08,57,6.40
2022,04,11,08,58,6.40
2022,04,11,08,59,6.40
2022,04,11,09,00,6.40
2022,04,11,09,01,6.40
2022,04,11,09,02,6.40
2022,04,11,09,03,6.50
2022,04,11,09,04,6.50
2022,04,11,09,05,6.50
2022,04,11,09,06,6.60
2022,04,11,09,07,6.60
2022,04,11,09,08,6.60
2022,04,11,09,09,6.60
2022,04,11,09,10,6.60
2022,04,11,09,11,6.70
2022,04,11,09,12,6.70
2022,04,11,09,13,6.70
2022,04,11,09,14,6.70
2022,04,11,09,15,6.70
2022,04,11,09,16,6.70
2022,04,11,09,17,6.70
2022,04,11,09,18,6.70
2022,04,11,09,19,6.70
2022,04,11,09,20,6.70
2022,04,11,09,21,6.70
2022,04,11,09,22,6.70
2022,04,11,09,23,6.70
2022,04,11,09,24,6.70
2022,04,11,09,25,6.80
2022,04,11,09,26,6.80
2022,04,11,09,27,6.80
2022,04,11,09,28,6.80
2022,04,11,09,29,6.80
2022,04,11,09,30,6.80
2022,04,11,09,31,6.80
2022,04,11,09,32,6.80
2022,04,11,09,33,6.90
2022,04,11,09,34,6.90
2022,04,11,09,35,6.90
2022,04,11,09,36,6.90
2022,04,11,09,37,7.00
2022,04,11,09,38,7.00
2022,04,11,09,39,7.00
2022,04,11,09,40,7.10
2022,04,11,09,41,7.10
2022,04,11,09,42,7.10
2022,04,11,09,43,7.10
2022,04,11,09,44,7.10
2022,04,11,09,45,7.10
2022,04,11,09,46,7.10
2022,04,11,09,47,7.10
2022,04,11,09,48,7.10
2022,04,11,09,49,7.10
2022,04,11,09,50,7.20
2022,04,11,09,51,7.20
2022,04,11,09,52,7.20
2022,04,11,09,53,7.20
2022,04,11,09,54,7.30
2022,04,11,09,55,7.30
2022,04,11,09,56,7.30
2022,04,11,09,57,7.30
2022,04,11,09,58,7.40
2022,04,11,09,59,7.40
2022,04,11,10,00,7.40
2022,04,11,10,01,7.40
2022,04,11,10,02,7.50
2022,04,11,10,03,7.50
2022,04,11,10,04,7.60
2022,04,11,10,05,7.70
2022,04,11,10,06,7.70
2022,04,11,10,07,7.80
2022,04,11,10,08,7.90
2022,04,11,10,09,8.00
2022,04,11,10,10,8.10
2022,04,11,10,11,8.10
2022,04,11,10,12,8.10
2022,04,11,10,13,8.10
2022,04,11,10,14,8.10
2022,04,11,10,15,8.10
2022,04,11,10,16,8.20
2022,04,11,10,17,8.20
2022,04,11,10,18,8.20
2022,04,11,10,19,8.20
2022,04,11,10,20,8.10
2022,04,11,10,21,8.10
2022,04,11,10,22,8.20
2022,04,11,10,23,8.20
2022,04,11,10,24,8.30
2022,04,11,10,25,8.40
2022,04,11,10,26,8.40
2022,04,11,10,27,8.30
2022,04,11,10,28,8.30
2022,04,11,10,29,8.30
2022,04,11,10,30,8.40
2022,04,11,10,31,8.30
2022,04,11,10,32,8.40
2022,04,11,10,33,8.40
2022,04,11,10,34,8.30
2022,04,11,10,35,8.30
2022,04,11,10,36,8.30
2022,04,11,10,37,8.30
2022,04,11,10,38,8.30
2022,04,11,10,39,8.40
2022,04,11,10,40,8.40
2022,04,11,10,41,8.40
2022,04,11,10,42,8.40
2022,04,11,10,43,8.40
2022,04,11,10,44,8.50
2022,04,11,10,45,8.60
2022,04,11,10,46,8.60
2022,04,11,10,47,8.50
2022,04,11,10,48,8.40
2022,04,11,10,49,8.50
2022,04,11,10,50,8.50
2022,04,11,10,51,8.50
2022,04,11,10,52,8.50
2022,04,11,10,53,8.50
2022,04,11,10,54,8.50
2022,04,11,10,55,8.50
2022,04,11,10,56,8.60
2022,04,11,10,57,8.60
2022,04,11,10,58,8.60
2022,04,11,10,59,8.60
2022,04,11,11,00,8.70
2022,04,11,11,01,8.70
2022,04,11,11,02,8.70
2022,04,11,11,03,8.60
2022,04,11,11,04,8.60
2022,04,11,11,05,8.60
2022,04,11,11,06,8.60
2022,04,11,11,07,8.70
2022,04,11,11,08,8.80
2022,04,11,11,09,8.80
2022,04,11,11,10,8.70
2022,04,11,11,11,8.70
2022,04,11,11,12,8.80
2022,04,11,11,13,9.00
2022,04,11,11,14,9.10
2022,04,11,11,15,9.10
2022,04,11,11,16,8.90
2022,04,11,11,17,8.80
2022,04,11,11,18,8.70
2022,04,11,11,19,8.80
2022,04,11,11,20,8.80
2022,04,11,11,21,8.70
2022,04,11,11,22,8.70
2022,04,11,11,23,8.80
2022,04,11,11,24,8.90
2022,04,11,11,25,9.10
2022,04,11,11,26,9.20
2022,04,11,11,27,9.10
2022,04,11,11,28,9.10
2022,04,11,11,29,9.00
2022,04,11,11,30,9.10
2022,04,11,11,31,9.20
2022,04,11,11,32,9.20
2022,04,11,11,33,9.10
2022,04,11,11,34,9.10
2022,04,11,11,35,9.10
2022,04,11,11,36,9.20
2022,04,11,11,37,9.20
2022,04,11,11,38,9.10
2022,04,11,11,39,8.90
2022,04,11,11,40,8.90
2022,04,11,11,41,8.90
2022,04,11,11,42,8.80
2022,04,11,11,43,8.80
2022,04,11,11,44,8.80
2022,04,11,11,45,8.90
2022,04,11,11,46,8.90
2022,04,11,11,47,9.00
2022,04,11,11,48,9.10
2022,04,11,11,49,9.20
2022,04,11,11,50,9.10
2022,04,11,11,51,9.10
2022,04,11,11,52,9.00
2022,04,11,11,53,9.10
2022,04,11,11,54,9.10
2022,04,11,11,55,9.10
2022,04,11,11,56,9.10
2022,04,11,11,57,9.10
2022,04,11,11,58,9.20
2022,04,11,11,59,9.30
2022,04,11,12,00,9.40
2022,04,11,12,01,9.40
2022,04,11,12,02,9.40
2022,04,11,12,03,9.40
2022,04,11,12,04,9.40
2022,04,11,12,05,9.30
2022,04,11,12,06,9.30
2022,04,11,12,07,9.30
2022,04,11,12,08,9.40
2022,04,11,12,09,9.60
2022,04,11,12,10,9.70
2022,04,11,12,11,9.70
2022,04,11,12,12,9.60
2022,04,11,12,13,9.50
2022,04,11,12,14,9.40
2022,04,11,12,15,9.50
2022,04,11,12,16,9.50
2022,04,11,12,17,9.60
2022,04,11,12,18,9.60
2022,04,11,12,19,9.70
2022,04,11,12,20,9.70
2022,04,11,12,21,9.90
2022,04,11,12,22,9.90
2022,04,11,12,23,9.70
2022,04,11,12,24,9.60
2022,04,11,12,25,9.50
2022,04,11,12,26,9.50
2022,04,11,12,27,9.50
2022,04,11,12,28,9.50
2022,04,11,12,29,9.50
2022,04,11,12,30,9.40
2022,04,11,12,31,9.60
2022,04,11,12,32,9.60
2022,04,11,12,33,9.60
2022,04,11,12,34,9.50
2022,04,11,12,35,9.50
2022,04,11,12,36,9.50
2022,04,11,12,37,9.50
2022,04,11,12,38,9.50
2022,04,11,12,39,9.50
2022,04,11,12,40,9.40
2022,04,11,12,41,9.50
2022,04,11,12,42,9.50
2022,04,11,12,43,9.60
2022,04,11,12,44,9.70
2022,04,11,12,45,9.90
2022,04,11,12,46,9.90
2022,04,11,12,47,9.80
2022,04,11,12,48,9.70
2022,04,11,12,49,9.60
2022,04,11,12,50,9.60
2022,04,11,12,51,9.70
2022,04,11,12,52,9.80
2022,04,11,12,53,9.70
2022,04,11,12,54,9.60
2022,04,11,12,55,9.50
2022,04,11,12,56,9.60
2022,04,11,12,57,9.60
2022,04,11,12,58,9.70
2022,04,11,12,59,9.70
2022,04,11,13,00,9.70
2022,04,11,13,01,9.70
2022,04,11,13,02,9.60
2022,04,11,13,03,9.60
2022,04,11,13,04,9.60
2022,04,11,13,05,9.60
2022,04,11,13,06,9.60
2022,04,11,13,07,9.80
2022,04,11,13,08,9.90
2022,04,11,13,09,9.90
2022,04,11,13,10,9.80
2022,04,11,13,11,9.80
2022,04,11,13,12,9.80
2022,04,11,13,13,9.70
2022,04,11,13,14,9.70
2022,04,11,13,15,9.80
2022,04,11,13,16,9.80
2022,04,11,13,17,10.00
2022,04,11,13,18,10.10
2022,04,11,13,19,10.10
2022,04,11,13,20,10.00
2022,04,11,13,21,10.00
2022,04,11,13,22,10.00
2022,04,11,13,23,10.00
2022,04,11,13,24,10.10
2022,04,11,13,25,10.10
2022,04,11,13,26,10.10
2022,04,11,13,27,10.10
2022,04,11,13,28,10.10
2022,04,11,13,29,10.10
2022,04,11,13,30,10.20
2022,04,11,13,31,10.20
2022,04,11,13,32,10.10
2022,04,11,13,33,10.00
2022,04,11,13,34,10.00
2022,04,11,13,35,10.00
2022,04,11,13,36,10.00
2022,04,11,13,37,10.10
2022,04,11,13,38,10.20
2022,04,11,13,39,10.20
2022,04,11,13,40,10.20
2022,04,11,13,41,10.30
2022,04,11,13,42,10.40
2022,04,11,13,43,10.20
2022,04,11,13,44,10.20
2022,04,11,13,45,10.30
2022,04,11,13,46,10.30
2022,04,11,13,47,10.40
2022,04,11,13,48,10.50
2022,04,11,13,49,10.60
2022,04,11,13,50,10.60
2022,04,11,13,51,10.60
2022,04,11,13,52,10.50
2022,04,11,13,53,10.40
2022,04,11,13,54,10.40
2022,04,11,13,55,10.40
2022,04,11,13,56,10.50
2022,04,11,13,57,10.60
2022,04,11,13,58,10.60
2022,04,11,13,59,10.70
2022,04,11,14,00,10.70
2022,04,11,14,01,10.50
2022,04,11,14,02,10.40
2022,04,11,14,03,10.30
2022,04,11,14,04,10.20
2022,04,11,14,05,10.10
2022,04,11,14,06,10.10
2022,04,11,14,07,10.10
2022,04,11,14,08,10.10
2022,04,11,14,09,10.10
2022,04,11,14,10,10.20
2022,04,11,14,11,10.20
2022,04,11,14,12,10.30
2022,04,11,14,13,10.30
2022,04,11,14,14,10.40
2022,04,11,14,15,10.40
2022,04,11,14,16,10.50
2022,04,11,14,17,10.50
2022,04,11,14,18,10.50
2022,04,11,14,19,10.50
2022,04,11,14,20,10.60
2022,04,11,14,21,10.60
2022,04,11,14,22,10.70
2022,04,11,14,23,10.70
2022,04,11,14,24,10.70
2022,04,11,14,25,10.60
2022,04,11,14,26,10.60
2022,04,11,14,27,10.60
2022,04,11,14,28,10.60
2022,04,11,14,29,10.60
2022,04,11,14,30,10.60
2022,04,11,14,31,10.40
2022,04,11,14,32,10.30
2022,04,11,14,33,10.00
2022,04,11,14,34,9.90
2022,04,11,14,35,9.80
2022,04,11,14,36,9.70
2022,04,11,14,37,9.50
2022,04,11,14,38,9.40
2022,04,11,14,39,9.30
2022,04,11,14,40,9.30
2022,04,11,14,41,9.20
2022,04,11,14,42,9.20
2022,04,11,14,43,9.30
2022,04,11,14,44,9.30
2022,04,11,14,45,9.40
2022,04,11,14,46,9.40
2022,04,11,14,47,9.40
2022,04,11,14,48,9.40
2022,04,11,14,49,9.40
2022,04,11,14,50,9.40
2022,04,11,14,51,9.50
2022,04,11,14,52,9.50
2022,04,11,14,53,9.60
2022,04,11,14,54,9.60
2022,04,11,14,55,9.60
2022,04,11,14,56,9.60
2022,04,11,14,57,9.60
2022,04,11,14,58,9.40
2022,04,11,14,59,9.40
2022,04,11,15,00,9.40
2022,04,11,15,01,9.40
2022,04,11,15,02,9.30
2022,04,11,15,03,9.10
2022,04,11,15,04,8.90
2022,04,11,15,05,8.90
2022,04,11,15,06,8.80
2022,04,11,15,07,8.80
2022,04,11,15,08,8.80
2022,04,11,15,09,8.80
2022,04,11,15,10,8.80
2022,04,11,15,11,8.80
2022,04,11,15,12,8.80
2022,04,11,15,13,8.80
2022,04,11,15,14,8.70
2022,04,11,15,15,8.60
2022,04,11,15,16,8.60
2022,04,11,15,17,8.60
2022,04,11,15,18,8.70
2022,04,11,15,19,8.70
2022,04,11,15,20,8.80
2022,04,11,15,21,8.90
2022,04,11,15,22,8.90
2022,04,11,15,23,8.90
2022,04,11,15,24,8.80
2022,04,11,15,25,8.80
2022,04,11,15,26,8.90
2022,04,11,15,27,8.90
2022,04,11,15,28,9.00
2022,04,11,15,29,9.10
2022,04,11,15,30,9.10
2022,04,11,15,31,9.20
2022,04,11,15,32,9.20
2022,04,11,15,33,9.20
2022,04,11,15,34,9.20
2022,04,11,15,35,9.20
2022,04,11,15,36,9.20
2022,04,11,15,37,9.10
2022,04,11,15,38,9.10
2022,04,11,15,39,9.00
2022,04,11,15,40,8.90
2022,04,11,15,41,8.90
2022,04,11,15,42,9.00
2022,04,11,15,43,9.10
2022,04,11,15,44,9.00
2022,04,11,15,45,8.90
2022,04,11,15,46,9.00
2022,04,11,15,47,9.00
2022,04,11,15,48,8.90
2022,04,11,15,49,9.00
2022,04,11,15,50,9.10
2022,04,11,15,51,9.10
2022,04,11,15,52,9.10
2022,04,11,15,53,9.20
2022,04,11,15,54,9.20
2022,04,11,15,55,9.20
2022,04,11,15,56,9.40
2022,04,11,15,57,9.60
2022,04,11,15,58,9.40
2022,04,11,15,59,9.40
2022,04,11,16,00,9.40
2022,04,11,16,01,9.30
2022,04,11,16,02,9.30
2022,04,11,16,03,9.30
2022,04,11,16,04,9.30
2022,04,11,16,05,9.30
2022,04,11,16,06,9.40
2022,04,11,16,07,9.40
2022,04,11,16,08,9.40
2022,04,11,16,09,9.50
2022,04,11,16,10,9.50
2022,04,11,16,11,9.50
2022,04,11,16,12,9.50
2022,04,11,16,13,9.50
2022,04,11,16,14,9.50
2022,04,11,16,15,9.40
2022,04,11,16,16,9.50
2022,04,11,16,17,9.40
2022,04,11,16,18,9.40
2022,04,11,16,19,9.40
2022,04,11,16,20,9.30
2022,04,11,16,21,9.30
2022,04,11,16,22,9.30
2022,04,11,16,23,9.20
2022,04,11,16,24,9.20
2022,04,11,16,25,9.30
2022,04,11,16,26,9.30
2022,04,11,16,27,9.40
2022,04,11,16,28,9.40
2022,04,11,16,29,9.40
2022,04,11,16,30,9.30
2022,04,11,16,31,9.30
2022,04,11,16,32,9.30
2022,04,11,16,33,9.30
2022,04,11,16,34,9.30
2022,04,11,16,35,9.30
2022,04,11,16,36,9.30
2022,04,11,16,37,9.30
2022,04,11,16,38,9.30
2022,04,11,16,39,9.40
2022,04,11,16,40,9.40
2022,04,11,16,41,9.40
2022,04,11,16,42,9.40
2022,04,11,16,43,9.40
2022,04,11,16,44,9.40
2022,04,11,16,45,9.40
2022,04,11,16,46,9.40
2022,04,11,16,47,9.50
2022,04,11,16,48,9.40
2022,04,11,16,49,9.40
2022,04,11,16,50,9.40
2022,04,11,16,51,9.40
2022,04,11,16,52,9.30
2022,04,11,16,53,9.30
2022,04,11,16,54,9.30
2022,04,11,16,55,9.30
2022,04,11,16,56,9.30
2022,04,11,16,57,9.30
2022,04,11,16,58,9.30
2022,04,11,16,59,9.30
2022,04,11,17,00,9.30
2022,04,11,17,01,9.30
2022,04,11,17,02,9.30
2022,04,11,17,03,9.30
2022,04,11,17,04,9.30
2022,04,11,17,05,9.30
2022,04,11,17,06,9.30
2022,04,11,17,07,9.30
2022,04,11,17,08,9.30
2022,04,11,17,09,9.20
2022,04,11,17,10,9.20
2022,04,11,17,11,9.20
2022,04,11,17,12,9.20
2022,04,11,17,13,9.30
2022,04,11,17,14,9.30
2022,04,11,17,15,9.30
2022,04,11,17,16,9.30
2022,04,11,17,17,9.40
2022,04,11,17,18,9.40
2022,04,11,17,19,9.40
2022,04,11,17,20,9.40
2022,04,11,17,21,9.40
2022,04,11,17,22,9.40
2022,04,11,17,23,9.40
2022,04,11,17,24,9.40
2022,04,11,17,25,9.40
2022,04,11,17,26,9.40
2022,04,11,17,27,9.40
2022,04,11,17,28,9.40
2022,04,11,17,29,9.40
2022,04,11,17,30,9.40
2022,04,11,17,31,9.40
2022,04,11,17,32,9.40
2022,04,11,17,33,9.40
2022,04,11,17,34,9.40
2022,04,11,17,35,9.50
2022,04,11,17,36,9.50
2022,04,11,17,37,9.60
2022,04,11,17,38,9.60
2022,04,11,17,39,9.60
2022,04,11,17,40,9.50
2022,04,11,17,41,9.50
2022,04,11,17,42,9.50
2022,04,11,17,43,9.40
2022,04,11,17,44,9.40
2022,04,11,17,45,9.30
2022,04,11,17,46,9.30
2022,04,11,17,47,9.40
2022,04,11,17,48,9.40
2022,04,11,17,49,9.50
2022,04,11,17,50,9.50
2022,04,11,17,51,9.40
2022,04,11,17,52,9.40
2022,04,11,17,53,9.40
2022,04,11,17,54,9.40
2022,04,11,17,55,9.40
2022,04,11,17,56,9.40
2022,04,11,17,57,9.40
2022,04,11,17,58,9.30
2022,04,11,17,59,9.40
2022,04,11,18,00,9.30
2022,04,11,18,01,9.30
2022,04,11,18,02,9.40
2022,04,11,18,03,9.40